Location: Erlach
(47.0430°N, 7.0996°E)
Time: 07:30:23
(UTC+00:00)

STARLINK-26 - Pass Details

Date: 07 June 2020
Orbit: 428 x 433 km, 53.0° (Epoch: 05 July)

Event Time Altitude Azimuth Distance (km) Brightness Sun altitude
Exits shadow 01:24:29 11° 273° (W) 1,466 5.6 -15.6°
Maximum altitude 01:27:34 39° 343° (NNW) 659 4.4 -15.3°
Drops below altitude 10° 01:30:51 10° 55° (NE) 1,536 6.9 -15.1°
Sets 01:33:03 0° 63° (ENE) 2,405 7.9 -14.9°
